Content
SEND FEEDBACK

Daily
Averages
Monthly
Summary
United States of America

ENDERLIN, NORTH DAKOTA


Home > North America > United States > North Dakota
Elevation: 1120 feet     Latitude: 46 37N     Longitude: 097 36W

WEATHER
 
SELECT A DAY
Number of Records: 63,484;   Date Range: 12/15/10 - 8/26/14
 
SHARE

PRINT THIS DATA

[ ← Previous Day ]
WEATHER ALMANAC - JUNE 17, 2014
[ Next Day → ]
[ °C ]   °F
Weather ElementAverageHighLow
Temperature67.7 °F77 °F (3:15 pm)57.2 °F (4:15 am)
Dewpoint61.6 °F64.4 °F (9:35 am)57.2 °F (4:15 am)
Humidity82.6 %100 % (12:35 am)61 % (3:15 pm)
Barometer29.82 in29.89 in (9:55 pm)29.74 in (12:35 am)
Wind Speed12.1 mph21.9 mph (5:55 pm)
Wind Gust28.8 mph (2:15 pm)
Weather ElementAverage
Visibility10 mi
Wind DirectionENE (63.7 °)

Weather ElementTotal
Precipitation---
Cooling Degree Days2.1 (Base 65)
Growing Degree Days17.1 (Base 50)
Averaged from 70 records on June 17, 2014
WEATHER CONDITIONS BREAKOUT
WIND DIRECTION BREAKOUT
WEATHER BY HOUR - JUNE 17, 2014
[ °C ]   °F
Local TimeTemperatureDewpointHumidityBarometerVisibilityWind DirectionWind SpeedGust SpeedPrecipitationEventsConditions
12:35 AM62.6 °F62.6 °F100 %29.74 in10.0 miENE (70°)8.1 mphClear
12:55 AM62.6 °F62.6 °F100 %29.74 in10.0 miENE (70°)5.8 mphClear
1:15 AM60.8 °F60.8 °F100 %29.74 in10.0 miEast (80°)8.1 mphClear
1:35 AM60.8 °F60.8 °F100 %29.74 in10.0 miENE (70°)6.9 mphClear
1:55 AM60.8 °F60.8 °F100 %29.76 in10.0 miEast (80°)6.9 mphClear
2:15 AM60.8 °F60.8 °F100 %29.77 in10.0 miENE (70°)6.9 mphClear
2:35 AM59.0 °F59.0 °F100 %29.77 in10.0 miEast (80°)6.9 mphClear
2:55 AM59.0 °F59.0 °F100 %29.76 in10.0 miENE (70°)5.8 mphClear
3:15 AM59.0 °F59.0 °F100 %29.76 in10.0 miENE (70°)6.9 mphClear
3:35 AM59.0 °F59.0 °F100 %29.76 in10.0 miNE (50°)5.8 mphClear
3:55 AM59.0 °F59.0 °F100 %29.76 in10.0 miNNE (30°)4.6 mphClear
4:15 AM57.2 °F57.2 °F100 %29.77 in10.0 miNE (40°)4.6 mphClear
4:35 AM57.2 °F57.2 °F100 %29.78 in10.0 miNorth (10°)4.6 mphClear
4:55 AM57.2 °F57.2 °F100 %29.79 in10.0 miENE (60°)4.6 mphClear
5:15 AM57.2 °F57.2 °F100 %29.78 in10.0 miNE (40°)8.1 mphClear
5:35 AM57.2 °F57.2 °F100 %29.80 in10.0 miNE (50°)3.5 mphClear
5:55 AM57.2 °F57.2 °F100 %29.80 in10.0 miNE (40°)4.6 mphClear
6:15 AM57.2 °F57.2 °F100 %29.80 in10.0 miNE (40°)6.9 mphClear
6:35 AM57.2 °F57.2 °F100 %29.80 in10.0 miNE (40°)6.9 mphClear
6:55 AM57.2 °F57.2 °F100 %29.81 in10.0 miNE (50°)6.9 mphClear
7:15 AM59.0 °F59.0 °F100 %29.82 in10.0 miENE (60°)8.1 mphClear
7:55 AM60.8 °F60.8 °F100 %29.82 in10.0 miENE (70°)10.4 mphPartly Cloudy
8:15 AM62.6 °F62.6 °F100 %29.83 in10.0 miENE (60°)9.2 mphClear
8:35 AM62.6 °F62.6 °F100 %29.83 in10.0 miENE (60°)11.5 mphClear
8:55 AM64.4 °F62.6 °F94 %29.83 in10.0 miENE (70°)11.5 mphClear
9:15 AM64.4 °F62.6 °F94 %29.83 in10.0 miEast (80°)9.2 mphClear
9:35 AM66.2 °F64.4 °F94 %29.83 in10.0 miEast (80°)11.5 mphClear
9:55 AM68.0 °F64.4 °F88 %29.83 in10.0 miEast (80°)11.5 mphClear
10:15 AM68.0 °F64.4 °F88 %29.83 in10.0 miNE (50°)13.8 mph17.3 mphClear
10:35 AM69.8 °F64.4 °F83 %29.83 in10.0 miNE (50°)13.8 mphClear
10:55 AM69.8 °F64.4 °F83 %29.83 in10.0 miNE (50°)13.8 mph18.4 mphClear
11:15 AM71.6 °F64.4 °F78 %29.83 in10.0 miENE (70°)15.0 mphClear
11:35 AM71.6 °F64.4 °F78 %29.84 in10.0 miNE (50°)15.0 mph19.6 mphClear
11:55 AM71.6 °F64.4 °F78 %29.84 in10.0 miENE (60°)17.3 mphClear
12:15 PM73.4 °F64.4 °F73 %29.84 in10.0 miENE (60°)10.4 mph18.4 mphClear
12:35 PM73.4 °F64.4 °F73 %29.84 in10.0 miNE (50°)17.3 mph21.9 mphClear
12:55 PM73.4 °F62.6 °F69 %29.84 in10.0 miENE (60°)13.8 mph23.0 mphScattered Clouds
1:15 PM75.2 °F62.6 °F65 %29.84 in10.0 miENE (70°)13.8 mph24.2 mphScattered Clouds
1:35 PM75.2 °F62.6 °F65 %29.84 in10.0 miEast (80°)16.1 mph24.2 mphScattered Clouds
1:55 PM75.2 °F62.6 °F65 %29.83 in10.0 miEast (90°)20.7 mph26.5 mphPartly Cloudy
2:15 PM75.2 °F62.6 °F65 %29.83 in10.0 miEast (80°)15.0 mph28.8 mphPartly Cloudy
2:35 PM75.2 °F62.6 °F65 %29.83 in10.0 miEast (90°)17.3 mph24.2 mphPartly Cloudy
2:55 PM75.2 °F62.6 °F65 %29.84 in10.0 miEast (80°)17.3 mph26.5 mphScattered Clouds
3:15 PM77.0 °F62.6 °F61 %29.84 in10.0 miENE (70°)15.0 mph20.7 mphMostly Cloudy
3:35 PM75.2 °F62.6 °F65 %29.83 in10.0 miENE (70°)16.1 mph24.2 mphMostly Cloudy
3:55 PM75.2 °F62.6 °F65 %29.84 in10.0 miEast (80°)15.0 mph24.2 mphScattered Clouds
4:15 PM77.0 °F62.6 °F61 %29.83 in10.0 miENE (70°)18.4 mph26.5 mphScattered Clouds
4:35 PM75.2 °F62.6 °F65 %29.83 in10.0 miENE (70°)15.0 mph24.2 mphMostly Cloudy
4:55 PM77.0 °F62.6 °F61 %29.83 in10.0 miEast (90°)19.6 mph24.2 mphScattered Clouds
5:15 PM77.0 °F62.6 °F61 %29.83 in10.0 miEast (80°)19.6 mph26.5 mphScattered Clouds
5:35 PM77.0 °F62.6 °F61 %29.82 in10.0 miENE (70°)18.4 mph24.2 mphScattered Clouds
5:55 PM75.2 °F62.6 °F65 %29.82 in10.0 miENE (70°)21.9 mph26.5 mphPartly Cloudy
6:15 PM75.2 °F62.6 °F65 %29.82 in10.0 miENE (60°)18.4 mph27.6 mphPartly Cloudy
6:35 PM75.2 °F62.6 °F65 %29.83 in10.0 miENE (70°)18.4 mph26.5 mphPartly Cloudy
6:55 PM75.2 °F62.6 °F65 %29.84 in10.0 miENE (70°)18.4 mph24.2 mphScattered Clouds
7:15 PM75.2 °F62.6 °F65 %29.85 in10.0 miENE (60°)18.4 mph26.5 mphMostly Cloudy
7:35 PM73.4 °F62.6 °F69 %29.84 in10.0 miENE (60°)17.3 mph26.5 mphMostly Cloudy
7:55 PM73.4 °F62.6 °F69 %29.85 in10.0 miENE (60°)17.3 mph24.2 mphScattered Clouds
8:15 PM71.6 °F62.6 °F73 %29.86 in10.0 miENE (70°)16.1 mph20.7 mphMostly Cloudy
8:35 PM71.6 °F62.6 °F73 %29.87 in10.0 miENE (60°)11.5 mphMostly Cloudy
8:55 PM71.6 °F60.8 °F69 %29.87 in10.0 miENE (60°)13.8 mph20.7 mphMostly Cloudy
9:15 PM69.8 °F60.8 °F73 %29.88 in10.0 miENE (60°)10.4 mphMostly Cloudy
9:35 PM69.8 °F60.8 °F73 %29.88 in10.0 miENE (60°)12.7 mph19.6 mphOvercast
9:55 PM68.0 °F62.6 °F83 %29.89 in10.0 miENE (60°)8.1 mphMostly Cloudy
10:15 PM68.0 °F62.6 °F83 %29.89 in10.0 miENE (60°)10.4 mphMostly Cloudy
10:35 PM68.0 °F62.6 °F83 %29.89 in10.0 miENE (70°)11.5 mphOvercast
10:55 PM66.2 °F62.6 °F88 %29.89 in10.0 miENE (60°)9.2 mphOvercast
11:15 PM66.2 °F62.6 °F88 %29.89 in10.0 miENE (60°)11.5 mph17.3 mphOvercast
11:35 PM66.2 °F62.6 °F88 %29.87 in10.0 miENE (60°)13.8 mph18.4 mphOvercast
11:55 PM66.2 °F60.8 °F83 %29.87 in10.0 miENE (70°)15.0 mph20.7 mphOvercast
Hourly data recorded from KBAC, located miles away from Enderlin, North Dakota







STORIES FROM OUR PARTNERS